timestamp,wind_dir_avg,wind_spd_avg,wind_spd_max_dir,wind_spd_gust,battery_voltage,lat,long
2023-09-01 00:04:00+00:00,307.0,6.06,300.0,8.11,12.41,47.59359,-54.27349
2023-09-01 00:14:00+00:00,313.0,8.78,316.0,10.68,12.41,47.59359,-54.27349
2023-09-01 00:24:00+00:00,348.0,9.52,349.0,11.01,12.41,47.59359,-54.27349
2023-09-01 00:34:00+00:00,329.0,10.74,330.0,12.25,12.41,47.59359,-54.27349
2023-09-01 00:44:00+00:00,336.0,9.97,335.0,11.31,12.41,47.59359,-54.27349
2023-09-01 00:54:00+00:00,339.0,9.65,338.0,11.11,12.41,47.59359,-54.27349
2023-09-01 01:04:00+00:00,349.0,9.37,351.0,10.6,12.41,47.59359,-54.27349
2023-09-01 01:14:01+00:00,352.0,10.26,343.0,11.94,12.41,47.59359,-54.27349
2023-09-01 01:24:01+00:00,341.0,9.92,342.0,11.72,12.41,47.59359,-54.27349
2023-09-01 01:34:01+00:00,339.0,9.6,337.0,11.72,12.41,47.59359,-54.27349
2023-09-01 01:44:01+00:00,351.0,9.39,340.0,10.96,12.41,47.59359,-54.27349
2023-09-01 01:54:01+00:00,347.0,7.42,350.0,8.71,12.41,47.59359,-54.27349
2023-09-01 02:04:01+00:00,346.0,8.51,340.0,10.06,12.41,47.59359,-54.27349
2023-09-01 02:14:01+00:00,344.0,10.22,336.0,12.06,12.41,47.59359,-54.27349
2023-09-01 02:24:01+00:00,356.0,8.66,5.0,10.41,12.41,47.59359,-54.27349
2023-09-01 02:34:01+00:00,1.0,10.13,350.0,11.78,12.41,47.59359,-54.27349
2023-09-01 02:44:01+00:00,357.0,9.25,358.0,11.18,12.41,47.59359,-54.27349
2023-09-01 02:54:01+00:00,3.0,8.81,3.0,10.77,12.41,47.59359,-54.27349
2023-09-01 03:04:01+00:00,357.0,8.13,358.0,9.5,12.41,47.59359,-54.27349
2023-09-01 03:14:00+00:00,0.0,9.0,1.0,10.95,12.33,47.59359,-54.27349
2023-09-01 03:24:00+00:00,0.0,9.16,4.0,10.81,12.33,47.59359,-54.27349
2023-09-01 03:34:00+00:00,4.0,9.86,2.0,11.21,12.33,47.59359,-54.27349
2023-09-01 03:44:00+00:00,13.0,7.97,16.0,9.82,12.33,47.59359,-54.27349
2023-09-01 03:54:00+00:00,6.0,8.38,1.0,10.33,12.33,47.59359,-54.27349
2023-09-01 04:04:00+00:00,20.0,9.39,19.0,11.17,12.33,47.59359,-54.27349
2023-09-01 04:14:00+00:00,2.0,10.13,2.0,11.88,12.41,47.59359,-54.27349
2023-09-01 04:24:00+00:00,18.0,11.17,11.0,12.87,12.41,47.59359,-54.27349
2023-09-01 04:34:00+00:00,14.0,10.29,16.0,11.91,12.41,47.59359,-54.27349
2023-09-01 04:44:00+00:00,11.0,8.38,3.0,10.35,12.41,47.59359,-54.27349
2023-09-01 04:54:00+00:00,7.0,9.58,5.0,10.51,12.41,47.59359,-54.27349
2023-09-01 05:04:00+00:00,12.0,8.77,14.0,10.85,12.41,47.59359,-54.27349
2023-09-01 05:14:01+00:00,11.0,7.62,12.0,9.08,12.33,47.59359,-54.27349
2023-09-01 05:24:01+00:00,19.0,9.28,24.0,10.57,12.33,47.59359,-54.27349
2023-09-01 05:34:01+00:00,4.0,9.45,5.0,11.04,12.33,47.59359,-54.27349
2023-09-01 05:44:01+00:00,15.0,7.98,14.0,8.96,12.33,47.59359,-54.27349
2023-09-01 05:54:01+00:00,9.0,8.22,14.0,9.81,12.33,47.59359,-54.27349
2023-09-01 06:04:01+00:00,15.0,7.17,18.0,8.76,12.33,47.59359,-54.27349
2023-09-01 06:14:01+00:00,357.0,5.92,2.0,7.17,12.33,47.59359,-54.27349
2023-09-01 06:24:01+00:00,8.0,5.6,12.0,6.5,12.33,47.59359,-54.27349
2023-09-01 06:34:01+00:00,3.0,6.3,2.0,8.51,12.33,47.59359,-54.27349
2023-09-01 06:44:01+00:00,6.0,6.76,1.0,8.35,12.33,47.59359,-54.27349
2023-09-01 06:54:01+00:00,16.0,7.31,18.0,8.5,12.33,47.59359,-54.27349
2023-09-01 07:04:01+00:00,358.0,6.67,355.0,8.2,12.33,47.59359,-54.27349
2023-09-01 07:14:00+00:00,358.0,5.54,7.0,6.25,12.25,47.59359,-54.27349
2023-09-01 07:24:00+00:00,347.0,7.28,354.0,8.77,12.25,47.59359,-54.27349
2023-09-01 07:34:00+00:00,348.0,6.13,347.0,7.56,12.25,47.59359,-54.27349
2023-09-01 07:44:00+00:00,351.0,5.96,349.0,7.62,12.25,47.59359,-54.27349
2023-09-01 07:54:00+00:00,346.0,5.75,343.0,7.28,12.25,47.59359,-54.27349
2023-09-01 08:04:00+00:00,346.0,6.5,350.0,7.67,12.25,47.59359,-54.27349
2023-09-01 08:14:00+00:00,340.0,6.07,339.0,7.11,12.25,47.59359,-54.27349
2023-09-01 08:24:00+00:00,3.0,6.65,3.0,8.06,12.25,47.59359,-54.27349
2023-09-01 08:34:00+00:00,0.0,6.65,357.0,8.42,12.25,47.59359,-54.27349
2023-09-01 08:44:00+00:00,2.0,7.1,4.0,8.97,12.25,47.59359,-54.27349
2023-09-01 08:54:00+00:00,10.0,6.32,2.0,7.57,12.25,47.59359,-54.27349
2023-09-01 09:04:00+00:00,9.0,7.19,14.0,9.23,12.25,47.59359,-54.27349
2023-09-01 09:14:00+00:00,0.0,7.96,357.0,9.04,12.25,47.59359,-54.27349
2023-09-01 09:24:00+00:00,353.0,8.33,350.0,9.23,12.25,47.59359,-54.27349
2023-09-01 09:34:00+00:00,358.0,8.03,356.0,9.11,12.25,47.59359,-54.27349
2023-09-01 09:44:00+00:00,349.0,9.17,346.0,9.79,12.25,47.59359,-54.27349
2023-09-01 09:54:00+00:00,354.0,9.37,354.0,10.45,12.25,47.59359,-54.27349
2023-09-01 10:04:00+00:00,351.0,9.31,349.0,10.61,12.25,47.59359,-54.27349
2023-09-01 10:14:00+00:00,349.0,8.48,347.0,9.68,12.33,47.59359,-54.27349
2023-09-01 10:24:00+00:00,343.0,8.62,346.0,9.81,12.33,47.59359,-54.27349
2023-09-01 10:34:00+00:00,341.0,7.69,344.0,8.93,12.33,47.59359,-54.27349
2023-09-01 10:44:00+00:00,346.0,8.22,345.0,9.08,12.33,47.59359,-54.27349
2023-09-01 10:54:00+00:00,350.0,7.13,348.0,8.16,12.33,47.59359,-54.27349
2023-09-01 11:04:00+00:00,348.0,6.08,342.0,6.83,12.33,47.59359,-54.27349
2023-09-01 11:14:01+00:00,358.0,5.63,6.0,6.46,13.05,47.59359,-54.27349
2023-09-01 11:24:01+00:00,343.0,5.15,351.0,6.24,13.05,47.59359,-54.27349
2023-09-01 11:34:01+00:00,343.0,5.17,345.0,5.97,13.05,47.59359,-54.27349
2023-09-01 11:44:01+00:00,341.0,5.71,343.0,6.49,13.05,47.59359,-54.27349
2023-09-01 11:54:01+00:00,350.0,5.8,353.0,6.79,13.05,47.59359,-54.27349
2023-09-01 12:04:01+00:00,351.0,4.81,357.0,5.61,13.05,47.59359,-54.27349
2023-09-01 12:14:00+00:00,1.0,4.73,356.0,5.38,13.68,47.59359,-54.27349
2023-09-01 12:24:00+00:00,345.0,3.88,349.0,5.26,13.68,47.59359,-54.27349
2023-09-01 12:34:00+00:00,337.0,3.09,339.0,3.66,13.68,47.59359,-54.27349
2023-09-01 12:44:00+00:00,341.0,3.89,339.0,4.75,13.68,47.59359,-54.27349
2023-09-01 12:54:00+00:00,325.0,1.76,325.0,2.35,13.68,47.59359,-54.27349
2023-09-01 13:04:00+00:00,332.0,2.11,329.0,3.16,13.68,47.59359,-54.27349
2023-09-01 13:14:01+00:00,335.0,3.23,352.0,4.23,13.68,47.59359,-54.27349
2023-09-01 13:24:01+00:00,349.0,2.63,331.0,3.27,13.68,47.59359,-54.27349
2023-09-01 13:34:01+00:00,13.0,2.95,27.0,3.88,13.68,47.59359,-54.27349
2023-09-01 13:44:01+00:00,12.0,3.7,28.0,5.06,13.68,47.59359,-54.27349
2023-09-01 13:54:01+00:00,355.0,4.76,356.0,6.3,13.68,47.59359,-54.27349
2023-09-01 14:04:01+00:00,340.0,4.92,339.0,6.27,13.68,47.59359,-54.27349
2023-09-01 14:14:00+00:00,6.0,3.3,12.0,4.08,13.6,47.59359,-54.27349
2023-09-01 14:24:00+00:00,345.0,4.41,344.0,5.38,13.6,47.59359,-54.27349
2023-09-01 14:34:00+00:00,5.0,2.48,5.0,3.06,13.6,47.59359,-54.27349
2023-09-01 14:44:00+00:00,342.0,2.22,19.0,3.39,13.6,47.59359,-54.27349
2023-09-01 14:54:00+00:00,4.0,3.09,5.0,3.63,13.6,47.59359,-54.27349
2023-09-01 15:04:00+00:00,65.0,3.65,65.0,4.24,13.6,47.59359,-54.27349
2023-09-01 15:14:00+00:00,70.0,2.42,69.0,3.02,14.24,47.59359,-54.27349
2023-09-01 15:24:00+00:00,64.0,2.33,65.0,2.67,14.24,47.59359,-54.27349
2023-09-01 15:34:00+00:00,70.0,2.75,69.0,3.25,14.24,47.59359,-54.27349
2023-09-01 15:44:00+00:00,70.0,2.04,58.0,2.68,14.24,47.59359,-54.27349
2023-09-01 15:54:00+00:00,75.0,2.83,72.0,3.66,14.24,47.59359,-54.27349
2023-09-01 16:04:00+00:00,125.0,2.52,132.0,3.28,14.24,47.59359,-54.27349
2023-09-01 16:14:01+00:00,112.0,2.21,117.0,2.89,13.68,47.59359,-54.27349
2023-09-01 16:24:01+00:00,144.0,2.03,152.0,2.34,13.68,47.59359,-54.27349
2023-09-01 16:34:01+00:00,132.0,0.95,150.0,1.36,13.68,47.59359,-54.27349
2023-09-01 16:44:01+00:00,72.0,1.43,65.0,2.63,13.68,47.59359,-54.27349
2023-09-01 16:54:01+00:00,135.0,2.39,132.0,2.99,13.68,47.59359,-54.27349
2023-09-01 17:04:01+00:00,131.0,2.19,140.0,2.94,13.68,47.59359,-54.27349
2023-09-01 17:14:00+00:00,139.0,3.09,142.0,3.7,14.32,47.59359,-54.27349
2023-09-01 17:24:00+00:00,142.0,2.11,137.0,2.69,14.32,47.59359,-54.27349
2023-09-01 17:34:00+00:00,189.0,1.33,182.0,1.64,14.32,47.59359,-54.27349
2023-09-01 17:44:00+00:00,182.0,2.19,174.0,2.57,14.32,47.59359,-54.27349
2023-09-01 17:54:00+00:00,176.0,1.48,173.0,1.93,14.32,47.59359,-54.27349
2023-09-01 18:04:00+00:00,180.0,1.14,178.0,1.47,14.32,47.59359,-54.27349
2023-09-01 18:14:00+00:00,167.0,1.61,156.0,1.93,14.24,47.59359,-54.27349
2023-09-01 18:24:00+00:00,199.0,0.99,203.0,1.4,14.24,47.59359,-54.27349
2023-09-01 18:34:00+00:00,173.0,1.45,176.0,1.72,14.24,47.59359,-54.27349
2023-09-01 18:44:00+00:00,206.0,3.3,205.0,4.09,14.24,47.59359,-54.27349
2023-09-01 18:54:00+00:00,215.0,4.35,215.0,5.32,14.24,47.59359,-54.27349
2023-09-01 19:04:00+00:00,205.0,4.49,204.0,4.94,14.24,47.59359,-54.27349
2023-09-01 19:14:00+00:00,209.0,5.19,209.0,5.95,13.68,47.59359,-54.27349
2023-09-01 19:24:00+00:00,215.0,5.15,214.0,5.55,13.68,47.59359,-54.27349
2023-09-01 19:34:00+00:00,214.0,3.46,200.0,4.74,13.68,47.59359,-54.27349
2023-09-01 19:44:00+00:00,212.0,4.71,215.0,5.25,13.68,47.59359,-54.27349
2023-09-01 19:54:00+00:00,215.0,5.38,214.0,5.85,13.68,47.59359,-54.27349
2023-09-01 20:04:00+00:00,208.0,5.61,210.0,6.16,13.68,47.59359,-54.27349
2023-09-01 20:14:00+00:00,211.0,5.64,207.0,6.57,13.6,47.59359,-54.27349
2023-09-01 20:24:00+00:00,210.0,5.52,214.0,6.25,13.6,47.59359,-54.27349
2023-09-01 20:34:00+00:00,201.0,5.61,208.0,6.28,13.6,47.59359,-54.27349
2023-09-01 20:44:00+00:00,200.0,4.33,199.0,4.92,13.6,47.59359,-54.27349
2023-09-01 20:54:00+00:00,209.0,5.13,209.0,5.83,13.6,47.59359,-54.27349
2023-09-01 21:04:00+00:00,215.0,5.37,214.0,6.04,13.6,47.59359,-54.27349
2023-09-01 21:14:00+00:00,214.0,5.27,215.0,6.02,13.37,47.59359,-54.27349
2023-09-01 21:24:00+00:00,209.0,5.62,201.0,6.3,13.37,47.59359,-54.27349
2023-09-01 21:34:00+00:00,214.0,5.66,213.0,6.27,13.37,47.59359,-54.27349
2023-09-01 21:44:00+00:00,212.0,6.04,208.0,6.74,13.37,47.59359,-54.27349
2023-09-01 21:54:00+00:00,212.0,5.45,215.0,6.38,13.37,47.59359,-54.27349
2023-09-01 22:04:00+00:00,223.0,5.28,230.0,6.28,13.37,47.59359,-54.27349
2023-09-01 22:14:00+00:00,206.0,5.54,205.0,6.31,12.97,47.59359,-54.27349
2023-09-01 22:24:00+00:00,208.0,6.11,208.0,6.9,12.97,47.59359,-54.27349
2023-09-01 22:34:00+00:00,220.0,5.77,215.0,6.68,12.97,47.59359,-54.27349
2023-09-01 22:44:00+00:00,212.0,6.66,219.0,7.69,12.97,47.59359,-54.27349
2023-09-01 22:54:00+00:00,221.0,6.05,225.0,6.92,12.97,47.59359,-54.27349
2023-09-01 23:04:00+00:00,210.0,5.93,205.0,6.7,12.97,47.59359,-54.27349
2023-09-01 23:14:00+00:00,214.0,5.02,213.0,5.73,12.57,47.59359,-54.27349
2023-09-01 23:24:00+00:00,221.0,5.01,231.0,5.65,12.57,47.59359,-54.27349
2023-09-01 23:34:00+00:00,224.0,4.33,229.0,4.85,12.57,47.59359,-54.27349
2023-09-01 23:44:00+00:00,224.0,4.28,227.0,5.12,12.57,47.59359,-54.27349
2023-09-01 23:54:00+00:00,227.0,4.56,231.0,5.19,12.57,47.59359,-54.27349
